"Pseudo-MPEC" for X57357

Created 2018 Jun 19 17:18:44 UT using Find_Orb

Click here for an explanation of pseudo-MPECs

 
 Astrometry: 
     X57357   C2018 06 125?Astrometry3!7WIMN`W@vcd6L=,%hOlY@^EYilj0/Y6\-v9(LWD29
     X57357   C2018 06 12F]=Hb+Q.?rl?=Kb\rredacted;,l'.%=seeEgn^Itoo7,29o=kW6D29
     X57357   C2018 06 12=JU4OqpG$NfvF1cnJ2B?[YLmMudrR!5V0I,\tS`j\Lf\8)PNEOCPD29

Station data:
(D29) Purple Mountain Observatory, XuYi Station  (N32.734366 E118.463900)
   China.  Observers H. B. Zhao, B. Li, G. Zhaori, R. Q. Hong, L. F. Hu.
   Measurers H. B. Zhao, B. Li. H. Lu, G. Zhaori. 1.04-m f/1.8 Schmidt + CCD.

Orbital elements:  X57357
   Perihelion 2018 May 19.091713 +/- 55.3 TT =  2:12:04 (JD 2458257.591713)
Epoch 2018 Jun 13.0 TT = JDT 2458282.5   Earth MOID: 0.5493   Ma: 0.0753
M   7.31235 +/- 26                  (J2000 ecliptic)          AutoNEOCP
n   0.29357136 +/- 0.306            Peri.  288.88066 +/- 80
a   2.24212723 +/- 1.56             Node   307.56777 +/- 57
e   0.3054712 +/- 0.254             Incl.    3.09413 +/- 3.7
P   3.36                   H 18.7   G  0.15   U 11.9  SR
q 1.55722184 +/- 0.656    Q 2.92703262 +/- 85
From 3 observations 2018 June 12 (43.3 min); mean residual 0".17
Residuals in arcseconds: 
180612 D29  .09+  .14-    180612 D29  .19-  .28+    180612 D29  .09+  .14-    

Ephemerides (geocentric):
Date (UTC) HH   RA              Dec         delta   r     elong  mag " sig PA
---- -- -- --  -------------   -----------  ------ ------ -----  --- ---- ---
2018 06 19 17  15 14 20.283   -24 22 17.23  .63542 1.5756 144.1 19.8 4412 167
2018 06 19 18  15 14 21.530   -24 22 07.99  .63563 1.5757 144.1 19.8 4485 167
2018 06 19 19  15 14 22.780   -24 21 58.78  .63584 1.5757 144.1 19.8 4559 167
2018 06 19 20  15 14 24.035   -24 21 49.57  .63604 1.5758 144.0 19.8 4636 167
2018 06 19 21  15 14 25.294   -24 21 40.38  .63625 1.5758 144.0 19.8 4716 167
2018 06 19 22  15 14 26.558   -24 21 31.20  .63646 1.5759 143.9 19.8 4798 167
2018 06 19 23  15 14 27.825   -24 21 22.04  .63666 1.5759 143.9 19.8 4883 167
2018 06 20 00  15 14 29.097   -24 21 12.89  .63687 1.5760 143.9 19.8 4971 167
2018 06 20 01  15 14 30.373   -24 21 03.76  .63708 1.5760 143.8 19.8 5062 166
2018 06 20 02  15 14 31.653   -24 20 54.64  .63729 1.5761 143.8 19.8 5156 166
2018 06 20 03  15 14 32.938   -24 20 45.53  .63749 1.5761 143.8 19.8 5253 166
2018 06 20 04  15 14 34.226   -24 20 36.44  .63770 1.5762 143.7 19.8 5355 166
2018 06 20 05  15 14 35.519   -24 20 27.36  .63791 1.5762 143.7 19.8 5460 166
2018 06 20 06  15 14 36.816   -24 20 18.29  .63812 1.5762 143.7 19.8 5569 166
2018 06 20 07  15 14 38.118   -24 20 09.24  .63833 1.5763 143.6 19.8 5683 166
2018 06 20 08  15 14 39.423   -24 20 00.21  .63854 1.5763 143.6 19.8 5802 165
2018 06 20 09  15 14 40.733   -24 19 51.18  .63875 1.5764 143.6 19.8 5926 165
2018 06 20 10  15 14 42.047   -24 19 42.17  .63896 1.5764 143.5 19.8 6055 165
2018 06 20 11  15 14 43.365   -24 19 33.18  .63917 1.5765 143.5 19.8 6191 165
2018 06 20 12  15 14 44.688   -24 19 24.20  .63938 1.5765 143.5 19.8 6332 165
2018 06 20 13  15 14 46.014   -24 19 15.23  .63959 1.5766 143.4 19.8 6481 165
2018 06 20 14  15 14 47.345   -24 19 06.28  .63980 1.5766 143.4 19.8 6636 164
2018 06 20 15  15 14 48.680   -24 18 57.34  .64001 1.5767 143.4 19.8 6800 164
2018 06 20 16  15 14 50.019   -24 18 48.42  .64022 1.5767 143.3 19.8 6972 164
2018 06 20 17  15 14 51.363   -24 18 39.51  .64043 1.5768 143.3 19.8 7154 164
2018 06 20 18  15 14 52.710   -24 18 30.61  .64064 1.5768 143.3 19.8 7345 164
2018 06 20 19  15 14 54.062   -24 18 21.73  .64085 1.5769 143.2 19.8 7547 163
2018 06 20 20  15 14 55.418   -24 18 12.86  .64106 1.5769 143.2 19.8 7761 163
2018 06 20 21  15 14 56.779   -24 18 04.01  .64127 1.5770 143.2 19.9 7988 163
2018 06 20 22  15 14 58.143   -24 17 55.17  .64149 1.5770 143.1 19.9 8229 163
2018 06 20 23  15 14 59.512   -24 17 46.35  .64170 1.5771 143.1 19.9 8486 162
2018 06 21 00  15 15 00.884   -24 17 37.54  .64191 1.5771 143.1 19.9 8759 162
2018 06 21 01  15 15 02.261   -24 17 28.74  .64212 1.5772 143.0 19.9 9050 162
2018 06 21 02  15 15 03.643   -24 17 19.96  .64234 1.5772 143.0 19.9 9362 162
2018 06 21 03  15 15 05.028   -24 17 11.19  .64255 1.5773 142.9 19.9 9695 161
2018 06 21 04  15 15 06.418   -24 17 02.44  .64276 1.5773 142.9 19.9 168' 161
2018 06 21 05  15 15 07.811   -24 16 53.70  .64298 1.5774 142.9 19.9 174' 161
2018 06 21 06  15 15 09.209   -24 16 44.97  .64319 1.5774 142.8 19.9 181' 160
2018 06 21 07  15 15 10.611   -24 16 36.26  .64341 1.5775 142.8 19.9 188' 160
2018 06 21 08  15 15 12.018   -24 16 27.57  .64362 1.5775 142.8 19.9 196' 160
2018 06 21 09  15 15 13.428   -24 16 18.89  .64383 1.5776 142.7 19.9 205' 159
2018 06 21 10  15 15 14.843   -24 16 10.22  .64405 1.5776 142.7 19.9 215' 159
2018 06 21 11  15 15 16.261   -24 16 01.56  .64426 1.5777 142.7 19.9 225' 158
2018 06 21 12  15 15 17.684   -24 15 52.93  .64448 1.5777 142.6 19.9 236' 158
2018 06 21 13  15 15 19.111   -24 15 44.30  .64469 1.5778 142.6 19.9 248' 158
2018 06 21 14  15 15 20.543   -24 15 35.69  .64491 1.5778 142.6 19.9 261' 157
2018 06 21 15  15 15 21.978   -24 15 27.09  .64512 1.5779 142.5 19.9 276' 157
2018 06 21 16  15 15 23.418   -24 15 18.51  .64534 1.5779 142.5 19.9 291' 156